• In Uzbekistan
  • List of Countries
  • For 7 days
  • Water Temperature
  • Satellite Maps
  • Weather Map
  • Weather Widgets
  • user-avatar
    Login

    Hourly Weather Stepanakert

    Today, 21 July, Friday

    Time Temperature Precipitation Wind Pressure Humidity
    00:00 +24°C° 0 mm 2 mps 690 mmHg 40%
    01:00 +24°C° 0 mm 2 mps 690 mmHg 40%
    02:00 +23°C° 0 mm 2 mps 690 mmHg 40%
    03:00 +24°C° 0 mm 2 mps 689 mmHg 40%
    04:00 +24°C° 0 mm 2 mps 690 mmHg 39%
    05:00 +25°C° 0 mm 2 mps 690 mmHg 39%
    06:00 +25°C° 0 mm 2 mps 690 mmHg 38%
    07:00 +27°C° 0 mm 2 mps 691 mmHg 33%
    08:00 +29°C° 0 mm 2 mps 691 mmHg 28%
    09:00 +31°C° 0 mm 2 mps 692 mmHg 23%
    10:00 +33°C° 0 mm 3 mps 692 mmHg 21%
    11:00 +35°C° 0 mm 3 mps 692 mmHg 20%
    12:00 +36°C° 0 mm 3 mps 692 mmHg 18%
    13:00 +36°C° 0 mm 3 mps 692 mmHg 19%
    14:00 +36°C° 0 mm 3 mps 691 mmHg 19%
    15:00 +37°C° 0 mm 4 mps 691 mmHg 19%
    16:00 +36°C° 0 mm 3 mps 691 mmHg 21%
    17:00 +35°C° 0 mm 3 mps 691 mmHg 23%
    18:00 +34°C° 0 mm 3 mps 691 mmHg 25%
    19:00 +31°C° 0 mm 3 mps 691 mmHg 27%
    20:00 +28°C° 0 mm 2 mps 691 mmHg 30%
    21:00 +26°C° 0 mm 2 mps 691 mmHg 32%
    22:00 +25°C° 0 mm 2 mps 691 mmHg 33%
    23:00 +25°C° 0 mm 2 mps 691 mmHg 34%

    Tomorrow, 22 July, Saturday

    Time Temperature Precipitation Wind Pressure Humidity
    00:00 +24°C° 0 mm 2 mps 692 mmHg 34%
    01:00 +24°C° 0 mm 2 mps 692 mmHg 34%
    02:00 +23°C° 0 mm 2 mps 692 mmHg 33%
    03:00 +23°C° 0 mm 2 mps 692 mmHg 33%
    04:00 +24°C° 0 mm 2 mps 692 mmHg 33%
    05:00 +24°C° 0 mm 2 mps 692 mmHg 33%
    06:00 +24°C° 0 mm 2 mps 692 mmHg 33%
    07:00 +26°C° 0 mm 2 mps 693 mmHg 30%
    08:00 +29°C° 0 mm 2 mps 693 mmHg 27%
    09:00 +31°C° 0 mm 2 mps 693 mmHg 25%
    10:00 +33°C° 0 mm 3 mps 693 mmHg 23%
    11:00 +34°C° 0 mm 3 mps 693 mmHg 22%
    12:00 +35°C° 0 mm 3 mps 693 mmHg 21%
    13:00 +36°C° 0 mm 4 mps 693 mmHg 21%
    14:00 +36°C° 0 mm 4 mps 692 mmHg 21%
    15:00 +37°C° 0 mm 4 mps 692 mmHg 21%
    16:00 +36°C° 0 mm 4 mps 692 mmHg 23%
    17:00 +35°C° 0 mm 3 mps 691 mmHg 25%
    18:00 +34°C° 0 mm 3 mps 691 mmHg 27%
    19:00 +31°C° 0 mm 3 mps 691 mmHg 31%
    20:00 +28°C° 0 mm 2 mps 691 mmHg 35%
    21:00 +26°C° 0 mm 2 mps 691 mmHg 38%
    22:00 +26°C° 0 mm 2 mps 691 mmHg 39%
    23:00 +25°C° 0 mm 2 mps 691 mmHg 40%

    Day after tomorrow, 23 July, Sunday

    Time Temperature Precipitation Wind Pressure Humidity
    00:00 +24°C° 0 mm 2 mps 691 mmHg 40%
    01:00 +24°C° 0 mm 2 mps 691 mmHg 40%
    02:00 +24°C° 0 mm 2 mps 690 mmHg 39%
    03:00 +24°C° 0 mm 2 mps 690 mmHg 39%
    04:00 +24°C° 0 mm 2 mps 690 mmHg 38%
    05:00 +24°C° 0 mm 2 mps 690 mmHg 38%
    06:00 +25°C° 0 mm 2 mps 690 mmHg 37%
    07:00 +27°C° 0 mm 2 mps 691 mmHg 33%
    08:00 +29°C° 0 mm 2 mps 691 mmHg 29%
    09:00 +31°C° 0 mm 2 mps 691 mmHg 25%
    10:00 +33°C° 0 mm 3 mps 691 mmHg 24%
    11:00 +35°C° 0 mm 3 mps 690 mmHg 23%
    12:00 +36°C° 0 mm 3 mps 690 mmHg 21%
    13:00 +36°C° 0 mm 3 mps 690 mmHg 21%
    14:00 +37°C° 0 mm 3 mps 689 mmHg 21%
    15:00 +37°C° 0 mm 3 mps 689 mmHg 20%
    16:00 +36°C° 0 mm 3 mps 689 mmHg 22%
    17:00 +36°C° 0 mm 2 mps 688 mmHg 24%
    18:00 +35°C° 0 mm 2 mps 688 mmHg 26%
    19:00 +31°C° 0 mm 2 mps 688 mmHg 29%
    20:00 +29°C° 0 mm 2 mps 689 mmHg 32%
    21:00 +27°C° 0 mm 2 mps 689 mmHg 35%
    22:00 +26°C° 0 mm 2 mps 689 mmHg 36%
    23:00 +25°C° 0 mm 2 mps 689 mmHg 37%

    24 July, Monday

    Time Temperature Precipitation Wind Pressure Humidity
    00:00 +25°C° 0 mm 2 mps 689 mmHg 39%
    01:00 +24°C° 0 mm 2 mps 689 mmHg 39%
    02:00 +24°C° 0 mm 2 mps 689 mmHg 40%
    03:00 +23°C° 0 mm 2 mps 689 mmHg 41%
    04:00 +24°C° 0 mm 2 mps 690 mmHg 41%
    05:00 +24°C° 0 mm 2 mps 690 mmHg 41%
    06:00 +25°C° 0 mm 2 mps 690 mmHg 41%
    07:00 +27°C° 0 mm 2 mps 690 mmHg 37%
    08:00 +29°C° 0 mm 2 mps 691 mmHg 34%
    09:00 +31°C° 0 mm 3 mps 691 mmHg 30%
    10:00 +33°C° 0 mm 3 mps 691 mmHg 29%
    11:00 +34°C° 0 mm 4 mps 691 mmHg 27%
    12:00 +35°C° 0 mm 4 mps 690 mmHg 26%
    13:00 +35°C° 0 mm 4 mps 690 mmHg 26%
    14:00 +36°C° 0 mm 4 mps 690 mmHg 26%
    15:00 +36°C° 0 mm 5 mps 689 mmHg 26%
    16:00 +35°C° 0 mm 5 mps 689 mmHg 28%
    17:00 +34°C° 0 mm 5 mps 689 mmHg 31%
    18:00 +33°C° 0 mm 5 mps 689 mmHg 33%
    19:00 +30°C° 0 mm 4 mps 689 mmHg 37%
    20:00 +28°C° 0 mm 3 mps 689 mmHg 42%
    21:00 +26°C° 0 mm 2 mps 689 mmHg 47%
    22:00 +25°C° 0 mm 2 mps 689 mmHg 48%
    23:00 +25°C° 0 mm 2 mps 689 mmHg 48%

    25 July, Tuesday

    Time Temperature Precipitation Wind Pressure Humidity
    00:00 +24°C° 0 mm 2 mps 689 mmHg 49%
    01:00 +24°C° 0 mm 2 mps 689 mmHg 48%
    02:00 +23°C° 0 mm 2 mps 689 mmHg 48%
    03:00 +23°C° 0 mm 2 mps 689 mmHg 47%
    04:00 +24°C° 0 mm 2 mps 689 mmHg 46%
    05:00 +24°C° 0 mm 2 mps 689 mmHg 45%
    06:00 +24°C° 0 mm 1 mps 690 mmHg 45%
    07:00 +27°C° 0 mm 2 mps 690 mmHg 40%
    08:00 +29°C° 0 mm 2 mps 690 mmHg 35%
    09:00 +31°C° 0 mm 2 mps 690 mmHg 30%
    10:00 +33°C° 0 mm 3 mps 690 mmHg 28%
    11:00 +34°C° 0 mm 3 mps 689 mmHg 26%
    12:00 +35°C° 0 mm 3 mps 689 mmHg 24%
    13:00 +36°C° 0 mm 3 mps 689 mmHg 24%
    14:00 +36°C° 0 mm 3 mps 688 mmHg 24%
    15:00 +37°C° 0 mm 3 mps 688 mmHg 23%
    16:00 +36°C° 0 mm 3 mps 688 mmHg 26%
    17:00 +35°C° 0 mm 3 mps 688 mmHg 28%
    18:00 +34°C° 0 mm 3 mps 688 mmHg 31%
    19:00 +31°C° 0 mm 3 mps 688 mmHg 36%
    20:00 +29°C° 0 mm 2 mps 688 mmHg 41%
    21:00 +27°C° 0 mm 2 mps 688 mmHg 46%
    22:00 +26°C° 0 mm 2 mps 688 mmHg 46%
    23:00 +26°C° 0 mm 2 mps 688 mmHg 47%

    26 July, Wednesday

    Time Temperature Precipitation Wind Pressure Humidity
    00:00 +25°C° 0 mm 2 mps 688 mmHg 48%
    01:00 +25°C° 0 mm 2 mps 688 mmHg 48%
    02:00 +24°C° 0 mm 2 mps 688 mmHg 48%
    03:00 +24°C° 0 mm 2 mps 688 mmHg 49%
    04:00 +24°C° 0 mm 2 mps 689 mmHg 48%
    05:00 +25°C° 0 mm 2 mps 689 mmHg 47%
    06:00 +25°C° 0 mm 2 mps 689 mmHg 47%
    07:00 +27°C° 0 mm 2 mps 690 mmHg 41%
    08:00 +30°C° 0 mm 2 mps 690 mmHg 36%
    09:00 +32°C° 0 mm 2 mps 690 mmHg 31%
    10:00 +34°C° 0 mm 2 mps 690 mmHg 28%
    11:00 +35°C° 0 mm 3 mps 690 mmHg 26%
    12:00 +36°C° 0 mm 3 mps 690 mmHg 24%
    13:00 +37°C° 0 mm 3 mps 690 mmHg 23%
    14:00 +37°C° 0 mm 3 mps 689 mmHg 23%
    15:00 +38°C° 0 mm 3 mps 689 mmHg 22%
    16:00 +37°C° 0 mm 3 mps 689 mmHg 24%
    17:00 +36°C° 0 mm 3 mps 689 mmHg 26%
    18:00 +35°C° 0 mm 3 mps 689 mmHg 29%
    19:00 +33°C° 0 mm 3 mps 689 mmHg 33%
    20:00 +30°C° 0 mm 2 mps 690 mmHg 37%
    21:00 +27°C° 0 mm 2 mps 690 mmHg 42%
    22:00 +27°C° 0 mm 2 mps 690 mmHg 42%
    23:00 +26°C° 0 mm 2 mps 690 mmHg 42%
    Show more